Location: Chimay
(50.0486°N, 4.3171°E)
Time: 04:27:52
(UTC+00:00)

Sich 1 - Pass Details

Date: 08 August 2020
Orbit: 593 x 626 km, 82.5° (Epoch: 19 September)

Event Time Altitude Azimuth Distance (km) Brightness Sun altitude
Rises 19:58:34 0° 173° (S) 2,894 6.1 -7.1°
Reaches altitude 10° 20:00:50 10° 168° (SSE) 1,995 5.2 -7.4°
Maximum altitude 20:05:06 48° 94° (E) 820 3.4 -7.9°
Drops below altitude 10° 20:09:23 10° 20° (NNE) 2,014 5.9 -8.5°
Sets 20:11:41 0° 15° (NNE) 2,925 6.8 -8.8°
